Redmond, OR

6:32 AM PST on February 10, 2016 (GMT -0800)
Roberts Field Airport

Weather History for KRDM - November, 2013

Change the Weather History Date:

Wednesday, November 6, 2013

  Actual Average Record
Temperature  
Mean Temperature 46 °F 40 °F  
Max Temperature 60 °F 53 °F 75 °F (2012)
Min Temperature 32 °F 28 °F 8 °F (1971)
Degree Days  
Heating Degree Days 19 24  
Month to date heating degree days 143 141  
Since 1 July heating degree days 1072 1086  
Cooling Degree Days 0 0  
Month to date cooling degree days 0 0  
Year to date cooling degree days 350 222  
Moisture  
Dew Point 41 °F    
Average Humidity 77    
Maximum Humidity 100    
Minimum Humidity 53    
Precipitation  
Precipitation T in 0.03 in 0.15 in (1997)
Month to date precipitation 0.07 0.18  
Year to date precipitation 4.30 6.96  
Sea Level Pressure  
Sea Level Pressure 30.24 in    
Wind  
Wind Speed 2 mph (North)    
Max Wind Speed 9 mph    
Max Gust Speed 12 mph    
Visibility 10 miles    
Events Rain    
T = Trace of Precipitation, MM = Missing Value Source: NWS Daily Summary

Daily Weather History Graph

Daily Weather History Graph

Search for Another Location

Airport or City:

Trip Planner

Search our weather history database for the weather conditions in past years. The results will help you decide how hot, cold, wet, or windy it might be!

Date:

Astronomy

Nov. 06, 2013 Rise Set
Actual Time 6:48 AM PST 4:47 PM PST
Civil Twilight 6:18 AM PST 5:17 PM PST
Nautical Twilight 5:43 AM PST 5:52 PM PST
Astronomical Twilight 5:09 AM PST 6:26 PM PST
Moon 10:11 AM PST (11/6) 7:54 PM PST (11/6)
Length of Visible Light 10h 59m
Length of Day
9h 58m
Waxing Crescent, 14% of the Moon is Illuminated
Nov 6
Waxing Crescent
Nov 9
First Quarter
Nov 17
Full
Nov 25
Last Quarter
Dec 2
New

Hourly Weather History & Observations

Time (PST) Temp. Windchill Dew Point Humidity Pressure Visibility Wind Dir Wind Speed Gust Speed Precip Events Conditions
12:56 AM 44.1 °F - 39.9 °F 85% 30.25 in 10.0 mi Calm Calm - N/A   Overcast
1:56 AM 43.0 °F - 39.9 °F 89% 30.25 in 10.0 mi Calm Calm - N/A   Overcast
2:56 AM 39.9 °F - 37.0 °F 89% 30.26 in 10.0 mi Calm Calm - N/A   Scattered Clouds
3:56 AM 37.0 °F 33.3 °F 35.1 °F 93% 30.26 in 10.0 mi ESE 4.6 mph - N/A   Mostly Cloudy
4:56 AM 36.0 °F - 35.1 °F 97% 30.27 in 10.0 mi Calm Calm - N/A   Clear
5:56 AM 34.0 °F 31.0 °F 33.1 °F 96% 30.28 in 8.0 mi NE 3.5 mph - N/A   Scattered Clouds
6:56 AM 32.0 °F - 30.9 °F 96% 30.30 in 10.0 mi Calm Calm - N/A   Clear
7:56 AM 36.0 °F - 34.0 °F 93% 30.30 in 10.0 mi Calm Calm - N/A   Clear
8:56 AM 42.1 °F - 39.9 °F 92% 30.30 in 10.0 mi Calm Calm - N/A   Clear
9:56 AM 50.0 °F - 43.0 °F 77% 30.30 in 10.0 mi NE 4.6 mph - N/A   Scattered Clouds
10:56 AM 55.0 °F - 43.0 °F 64% 30.28 in 10.0 mi South 5.8 mph - N/A   Clear
11:56 AM 59.0 °F - 44.1 °F 58% 30.25 in 10.0 mi NNW 5.8 mph - N/A   Partly Cloudy
12:56 PM 59.0 °F - 43.0 °F 55% 30.23 in 10.0 mi WNW 5.8 mph - N/A   Partly Cloudy
1:56 PM 57.0 °F - 44.1 °F 62% 30.22 in 10.0 mi North 5.8 mph - N/A   Overcast
2:56 PM 55.9 °F - 44.1 °F 64% 30.23 in 10.0 mi NNW 5.8 mph - N/A   Overcast
3:56 PM 54.0 °F - 44.1 °F 69% 30.22 in 10.0 mi NNW 4.6 mph - N/A   Overcast
4:56 PM 51.1 °F - 44.1 °F 77% 30.23 in 10.0 mi NW 6.9 mph - N/A   Overcast
5:56 PM 48.9 °F - 44.1 °F 83% 30.24 in 10.0 mi Calm Calm - 0.00 in   Overcast
6:56 PM 48.0 °F - 44.1 °F 86% 30.24 in 10.0 mi Calm Calm - 0.00 in Rain Light Rain
7:56 PM 48.0 °F - 44.1 °F 86% 30.22 in 10.0 mi NW 5.8 mph - 0.00 in   Overcast
8:56 PM 46.9 °F - 43.0 °F 86% 30.20 in 10.0 mi Calm Calm - N/A   Overcast
9:56 PM 46.0 °F - 43.0 °F 89% 30.18 in 10.0 mi Calm Calm - N/A   Overcast
10:56 PM 46.0 °F - 43.0 °F 89% 30.15 in 10.0 mi Calm Calm - N/A   Overcast
11:56 PM 44.1 °F - 42.1 °F 93% 30.12 in 9.0 mi Calm Calm - N/A   Overcast